Regional Weather Roundup
Issued by NWS

Home | Current Version | Previous Version | Text Only | Print | Product List | Glossary On
Versions: 1 2 3 4 5 6 7 8 9 10 11 12 13 14 15 16 17 18 19 20 21 22 23 24 25 26 27 28
000
ASUS46 KSEW 231210
RWRWA

WASHINGTON REGIONAL WEATHER ROUNDUP
NATIONAL WEATHER SERVICE SEATTLE WA
400 AM PST THU FEB 23 2017

NOTE:"FAIR" INDICATES FEW OR NO CLOUDS BELOW 12,000 FEET WITH NO
SIGNIFICANT WEATHER AND/OR OBSTRUCTIONS TO VISIBILITY.

WAZ507-509-555>559-231300-
SEATTLE, TACOMA, EVERETT, AND VICINITY

CITY           SKY/WX    TMP DP  RH WIND       PRES   REMARKS
EVERETT        FOG       34  34 100 NW5       30.21S VSB 1/4
6HR MIN TEMP:  33; 6HR MAX TEMP:  36;

BOEING FIELD   CLOUDY    34  34 100 SE5       30.23S
6HR MIN TEMP:  33; 6HR MAX TEMP:  37;

RENTON         CLOUDY    34  33  96 CALM      30.23S
6HR MIN TEMP:  33; 6HR MAX TEMP:  35;

SEATAC AIRPORT CLOUDY    35  34  96 CALM      30.22R
6HR MIN TEMP:  34; 6HR MAX TEMP:  38; 6HR PCP: TRACE;

JBLM-MCCHORD   NOT AVBL
PUYALLUP       LGT SNOW  34  34 100 CALM      30.22S
BREMERTON        N/A     32  30  93 CALM      30.24S
6HR MIN TEMP:  28; 6HR MAX TEMP:  36;

JBLM-FT LEWIS  CLOUDY    33  33 100 CALM      30.22R
6HR MIN TEMP:  29; 6HR MAX TEMP:  37;

TACOMA NARROWS CLOUDY    35  35 100 CALM      30.23R
6HR MIN TEMP:  33; 6HR MAX TEMP:  36;

$$

WAZ001-503-506-510-514-515-231300-
NORTH INTERIOR

CITY           SKY/WX    TMP DP  RH WIND       PRES   REMARKS
BELLINGHAM     CLOUDY    33  32  96 CALM      30.22R
6HR MIN TEMP:  29; 6HR MAX TEMP:  33;

FRIDAY HARBOR  PTCLDY    36  31  82 VRB5      30.23S
6HR MIN TEMP:  30; 6HR MAX TEMP:  37;

EASTSOUND      MOCLDY    39  36  87 N7        30.21S
PORT ANGELES   LGT SNOW  33  29  85 W9        30.24R FOG
6HR MIN TEMP:  31; 6HR MAX TEMP:  34; 6HR PCP: TRACE;

EDIZ HOOK      DRIZZLE   37  34  89 E14       30.25R
6HR MIN TEMP:  35; 6HR MAX TEMP:  37;

PORT TOWNSEND  LGT SNOW  34  34 100 CALM      30.25S
NAS WHIDBEY    MOCLDY    35  31  85 SE5       30.27S
6HR MIN TEMP:  29; 6HR MAX TEMP:  35;

ARLINGTON      CLOUDY    28  21  74 CALM      30.25S VSB 3/4
6HR MIN TEMP:  27; 6HR MAX TEMP:  34;

BURLINGTON     CLOUDY    30  30 100 CALM      30.23S
$$

WAZ020-022-039-040-504-511-512-231300-
SOUTHWEST INTERIOR

CITY           SKY/WX    TMP DP  RH WIND       PRES   REMARKS
SHELTON        CLOUDY    32  30  92 CALM      30.20S
6HR MIN TEMP:  32; 6HR MAX TEMP:  35;

OLYMPIA        CLOUDY    34  34 100 CALM      30.23S
6HR MIN TEMP:  32; 6HR MAX TEMP:  34;

CHEHALIS       FOG       34  34 100 CALM      30.23S VSB 1/2
KELSO          CLOUDY    33  33 100 W5        30.25R
6HR MIN TEMP:  33; 6HR MAX TEMP:  36; 6HR PCP: TRACE;

VANCOUVER      MOCLDY    32  32 100 CALM      30.24R
6HR MIN TEMP:  31; 6HR MAX TEMP:  38;

SCAPPOOSE, OR  CLEAR     29  29 100 W3        30.23S
6HR MIN TEMP:  27; 6HR MAX TEMP:  32;

PORTLAND, OR   CLOUDY    35  33  92 NE3       30.24S
6HR MIN TEMP:  34; 6HR MAX TEMP:  37;

$$

WAZ021-516-517-231300-
WASHINGTON COAST

CITY           SKY/WX    TMP DP  RH WIND       PRES   REMARKS
FORKS          CLEAR     28  27  96 CALM      30.22S
6HR MIN TEMP:  26; 6HR MAX TEMP:  30;

HOQUIAM        FOG       28  28 100 NE3       30.23S VSB 1
6HR MIN TEMP:  28; 6HR MAX TEMP:  34;

ASTORIA, OR    CLEAR     30  27  88 SE3       30.23S
6HR MIN TEMP:  29; 6HR MAX TEMP:  33;

$$

WAZ019-023-024-040-567>569-231300-
CASCADE MOUNTAINS AND COLUMBIA GORGE

CITY           SKY/WX    TMP DP  RH WIND       PRES   REMARKS
STAMPEDE PASS  NOT AVBL
TROUTDALE, OR  CLOUDY    38  35  89 CALM      30.24R
6HR MIN TEMP:  37; 6HR MAX TEMP:  40; 6HR PCP:  0.01;

THE DALLES, OR PTCLDY    37  30  75 NW12      30.17S
6HR MIN TEMP:  36; 6HR MAX TEMP:  40;

$$

WAZ026-027-041>044-520-521-231300-
EAST SLOPES

CITY           SKY/WX    TMP DP  RH WIND       PRES   REMARKS
OMAK           CLEAR     20  13  74 N7        30.13S
6HR MIN TEMP:  20; 6HR MAX TEMP:  26;

WENATCHEE      CLEAR     25  21  85 W9        30.12S
6HR MIN TEMP:  24; 6HR MAX TEMP:  32;

ELLENSBURG     CLEAR     29  19  66 NW15      30.09S WCI  18
6HR MIN TEMP:  28; 6HR MAX TEMP:  32;

YAKIMA         CLEAR     22  17  81 W6        30.13R
6HR MIN TEMP:  21; 6HR MAX TEMP:  32;

SUNNYSIDE ARPT SUNNY     22  21  96 CALM      30.13R
6HR MIN TEMP:  22; 6HR MAX TEMP:  28;

$$

WAZ028-034-035-231300-
COLUMBIA BASIN

CITY           SKY/WX    TMP DP  RH WIND       PRES   REMARKS
EPHRATA        CLEAR     29  15  56 NW7       30.08S
6HR MIN TEMP:  28; 6HR MAX TEMP:  33;

MOSES LAKE     CLEAR     20  17  88 CALM      30.10S
6HR MIN TEMP:  19; 6HR MAX TEMP:  29;

PASCO          CLEAR     26  24  92 CALM      30.14R
6HR MIN TEMP:  26; 6HR MAX TEMP:  30;

HERMISTON, OR  PTCLDY    27  26  96 CALM      30.12R
6HR MIN TEMP:  26; 6HR MAX TEMP:  32;

$$

WAZ036>038-231300-
NORTHEAST WASHINGTON

CITY           SKY/WX    TMP DP  RH WIND       PRES   REMARKS
SPOKANE GEIGER FOG       22  20  92 CALM      30.01  VSB 1/16
6HR MIN TEMP:  20; 6HR MAX TEMP:  28;

SPOKANE FELTS  FOG       26  26 100 CALM      30.05R VSB 1/4
6HR MIN TEMP:  25; 6HR MAX TEMP:  28;

FAIRCHILD AFB  CLEAR     17  17  99 CALM      30.00S
6HR MIN TEMP:  16; 6HR MAX TEMP:  28;

COEURDALENE,ID FOG       26  25  96 CALM      30.03R VSB 1/2
6HR MIN TEMP:  22; 6HR MAX TEMP:  26; 6HR PCP: TRACE;

DEER PARK      CLEAR     16  11  80 CALM      30.03S
6HR MIN TEMP:  16; 6HR MAX TEMP:  24;

$$

WAZ029>033-231300-
SOUTHEAST WASHINGTON

CITY           SKY/WX    TMP DP  RH WIND       PRES   REMARKS
PULLMAN        MOCLDY    29  27  92 NW5       30.02R
6HR MIN TEMP:  29; 6HR MAX TEMP:  32;

LEWISTON, ID   CLOUDY    34  28  79 VRB7      30.04S
6HR MIN TEMP:  34; 6HR MAX TEMP:  36; 6HR PCP: TRACE;

WALLA WALLA    PTCLDY    30  28  92 S7        30.09R
6HR MIN TEMP:  30; 6HR MAX TEMP:  35;

PENDLETON, OR  MOCLDY    30  27  88 NW5       30.09R
6HR MIN TEMP:  29; 6HR MAX TEMP:  34;

$$




USA.gov is the U.S. government's official web portal to all federal, state and local government web resources and services.